sat.trackr.live / text

‹ back to catalog

STARLINK-31431

NORAD 59002 · 2024-036E

PAYLOAD ACTIVE UNKNOWN

§ Identity

Operator
Country
US
Launch date
2024-02-23
Launch site
AFWTR
Launch vehicle
Mass (kg)
RCS (m²)

Purposes: comms

External: N2YO · Heavens-Above · Gunter

§ Orbital elements

Epoch: 2026-09-20T22:44:04.094304Z

Period
94.01 min
Inclination
53.1583°
Eccentricity
0.0001406
Mean motion
15.31697263 rev/d
Perigee alt
469.8 km
Apogee alt
471.7 km
Semi-major
6,848.9 km
B*
6.7289e-6
RAAN
250.7847°
Arg perigee
86.0930°
Mean anomaly
274.0232°
Rev number
14,522

§ Raw data

STARLINK-314311 59002U 24036E   26263.94726961 -.00000156  00000+0  67289-5 0  99932 59002  53.1583 250.7847 0001406  86.0930 274.0232 15.31697263145220

JSON: /api/v1/satellites/59002 · /tle

For live sub-satellite position, see the globe view (requires WebGL).

§ Visibility from observer

Set your observer location to see the next 7 days of passes ≥ 10°. The values pass through the URL so the page stays shareable.

No JS? Fill the form by hand. The geolocation button needs JavaScript.